{"data":{"norad_id":67731,"epoch":"2026-09-18T22:59:48.004800Z","epoch_age_seconds":199653,"freshness":"STALE","line1":"1 67731U 26026L   26261.95819450  .00012645  00000+0  39334-3 0  9990","line2":"2 67731  97.2849 313.8019 0001225 165.1944 194.9335 15.33444591 33740","mean_motion":15.33444591,"eccentricity":0.0001225,"inclination_deg":97.2849,"raan_deg":313.8019,"arg_perigee_deg":165.1944,"mean_anomaly_deg":194.9335,"bstar":0.00039334,"rev_number":3374,"period_min":93.906229703477,"perigee_km":464.7060404042,"apogee_km":466.38274234509,"semimajor_km":6843.6813913746,"source":"CELESTRAK","updated_at":"2026-09-20T09:00:43.658502Z"}}